Content
SEND FEEDBACK

Daily
Averages
Monthly
Summary
United States of America

EAST CARONDELET, ILLINOIS


Home > North America > United States > Illinois
Elevation: 400 feet     Latitude: 38 34N     Longitude: 090 13W

WEATHER
 
SELECT A DAY
Number of Records: 189,896;   Date Range: 1/1/95 - 11/22/14
 
SHARE

PRINT THIS DATA

[ ← Previous Day ]
WEATHER ALMANAC - MAY 10, 2013
[ Next Day → ]
[ °C ]   °F
Weather ElementAverageHighLow
Temperature62.7 °F68 °F (1:32 pm)55.9 °F (11:53 pm)
Dewpoint56.3 °F60.8 °F (1:26 am)48.9 °F (10:53 pm)
Humidity79.8 %93 % (3:53 am)68 % (1:32 pm)
Barometer29.92 in30.01 in (11:53 pm)29.84 in (2:53 am)
Wind Speed9.8 mph18.4 mph (4:37 pm)
Wind Gust24.2 mph (3:53 pm)
Weather ElementAverage
Visibility9.7 mi
Wind DirectionWNW (291.3 °)

Weather ElementTotal
Precipitation0.19 in
Heating Degree Days3.1 (Base 65)
Growing Degree Days12 (Base 50)
Averaged from 30 records on May 10, 2013
WEATHER CONDITIONS BREAKOUT
WIND DIRECTION BREAKOUT
WEATHER BY HOUR - MAY 10, 2013
[ °C ]   °F
Local TimeTemperatureDewpointHumidityBarometerVisibilityWind DirectionWind SpeedGust SpeedPrecipitationEventsConditions
1:26 AM64.4 °F60.8 °F88 %29.92 in10.0 miVariable6.9 mph16.1 mph0.01 inRain-ThunderstormLight Rain
1:41 AM64.4 °F60.8 °F88 %29.90 in6.0 miWSW (240°)6.9 mph0.04 inRainRain
1:53 AM64.0 °F60.1 °F87 %29.88 in4.0 miNW (310°)4.6 mph0.09 inRainRain
2:53 AM63.0 °F59.0 °F87 %29.84 in10.0 miSouth (180°)4.6 mph0.05 inOvercast
3:53 AM61.0 °F59.0 °F93 %29.85 in10.0 miWest (270°)4.6 mphOvercast
4:53 AM61.0 °F59.0 °F93 %29.85 in10.0 miSW (230°)3.5 mph0.00 inOvercast
5:53 AM60.1 °F57.9 °F93 %29.87 in10.0 miSouth (180°)3.5 mphMostly Cloudy
6:53 AM61.0 °F59.0 °F93 %29.87 in10.0 miSouth (190°)3.5 mphMostly Cloudy
8:53 AM64.9 °F60.1 °F84 %29.89 in10.0 miWest (270°)4.6 mphMostly Cloudy
9:17 AM66.2 °F60.8 °F83 %29.89 in10.0 miWest (280°)5.8 mphOvercast
9:53 AM66.0 °F59.0 °F78 %29.89 in10.0 miWNW (300°)9.2 mphOvercast
10:53 AM66.9 °F59.0 °F76 %29.90 in10.0 miNW (310°)4.6 mphOvercast
12:53 PM66.0 °F57.9 °F75 %29.90 in10.0 miNW (320°)13.8 mphOvercast
1:32 PM68.0 °F57.2 °F68 %29.90 in10.0 miNNW (330°)15.0 mphOvercast
1:53 PM66.9 °F57.0 °F70 %29.91 in10.0 miNW (310°)13.8 mphMostly Cloudy
2:03 PM66.2 °F57.2 °F73 %29.91 in10.0 miNW (310°)13.8 mphMostly Cloudy
2:28 PM66.2 °F57.2 °F73 %29.92 in10.0 miNW (320°)12.7 mphOvercast
2:53 PM68.0 °F57.9 °F70 %29.91 in10.0 miNW (310°)12.7 mphOvercast
3:53 PM66.0 °F57.0 °F73 %29.91 in10.0 miNW (320°)16.1 mph24.2 mphMostly Cloudy
4:37 PM62.6 °F55.4 °F77 %29.93 in10.0 miNW (320°)18.4 mphOvercast
4:53 PM63.0 °F55.9 °F78 %29.93 in10.0 miNNW (330°)16.1 mphOvercast
5:53 PM61.0 °F55.0 °F81 %29.94 in10.0 miNorth (360°)12.7 mphOvercast
6:53 PM61.0 °F52.0 °F72 %29.95 in10.0 miNW (320°)13.8 mph20.7 mphOvercast
7:53 PM59.0 °F52.0 °F78 %29.96 in10.0 miNNW (340°)10.4 mphOvercast
8:53 PM59.0 °F51.1 °F75 %29.96 in10.0 miNorth (350°)12.7 mphOvercast
9:00 PM57.2 °F51.8 °F82 %29.97 in10.0 miNNW (340°)11.5 mphOvercast
9:53 PM57.9 °F51.1 °F78 %29.98 in10.0 miNorth (360°)8.1 mphOvercast
10:34 PM57.2 °F50.0 °F77 %30.00 in10.0 miNorth (350°)11.5 mphOvercast
10:53 PM57.0 °F48.9 °F74 %30.00 in10.0 miNorth (350°)10.4 mphOvercast
11:53 PM55.9 °F48.9 °F77 %30.01 in10.0 miNNW (340°)9.2 mphOvercast
Hourly data recorded from KCPS, located miles away from East Carondelet, Illinois







STORIES FROM OUR PARTNERS